Location: Unspecified
(0.0000°N, 0.0000°E)
Time: 01:18:50
(UTC+00:00)

deb Kosmos-1275 - Pass Details

Date: 08 March 2026
Orbit: 928 x 975 km, 82.8° (Epoch: 14 April)

Event Time Altitude Azimuth Distance (km) Brightness Sun altitude
Rises 19:14:58 0° 189° (S) 3,579 ? -16.0°
Reaches altitude 10° 19:17:28 10° 191° (S) 2,631 ? -16.6°
Maximum altitude 19:23:24 68° 273° (W) 996 ? -18.1°
Drops below altitude 10° 19:29:20 10° 355° (N) 2,625 ? -19.6°
Sets 19:31:50 0° 358° (N) 3,569 ? -20.2°
